RYR5MK EGPH-EINN

Flight info

Callsign RYR5MK
Flight time N/A
Altitude 22000
Route GOSAM P600 TRN/N0418F340 DCT DEGOS DCT RIKUL RIKUL2E
Aircraft B738/M-SDE2E3FGHIRWXY/LB1

Departure

Time 2026-05-03 20:36
Airport Edinburgh Airport (EGPH)

Arrival

Time N/A
Airport Shannon Airport (EINN)
Time Latitude Longitude Altitude Speed Heading
2026-05-03 20:15 55.94659 -3.36615 104 ft 0 kts 88°
2026-05-03 20:21 55.94658 -3.36639 104 ft 2 kts 87°
2026-05-03 20:21 55.94658 -3.36666 104 ft 2 kts 89°
2026-05-03 20:21 55.94658 -3.36692 104 ft 1 kts 88°
2026-05-03 20:22 55.94657 -3.36709 104 ft 2 kts 70°
2026-05-03 20:22 55.94648 -3.36730 104 ft 2 kts 27°
2026-05-03 20:22 55.94639 -3.36735 104 ft 0 kts
2026-05-03 20:22 55.94631 -3.36734 104 ft 0 kts 358°
2026-05-03 20:24 55.94632 -3.36734 104 ft 0 kts 358°
2026-05-03 20:25 55.94679 -3.36735 104 ft 12 kts 359°
2026-05-03 20:25 55.94757 -3.36750 104 ft 7 kts 330°
2026-05-03 20:25 55.94807 -3.36774 104 ft 9 kts 357°
2026-05-03 20:25 55.94851 -3.36776 104 ft 5 kts 358°
2026-05-03 20:26 55.94883 -3.36788 104 ft 4 kts 330°
2026-05-03 20:26 55.94923 -3.36849 104 ft 12 kts 287°
2026-05-03 20:26 55.94888 -3.37007 104 ft 14 kts 238°
2026-05-03 20:26 55.94827 -3.37185 104 ft 19 kts 238°
2026-05-03 20:27 55.94757 -3.37391 104 ft 19 kts 238°
2026-05-03 20:27 55.94689 -3.37588 104 ft 17 kts 238°
2026-05-03 20:27 55.94641 -3.37733 105 ft 13 kts 238°
2026-05-03 20:27 55.94576 -3.37924 106 ft 22 kts 238°
2026-05-03 20:28 55.94499 -3.38153 108 ft 20 kts 237°
2026-05-03 20:28 55.94429 -3.38356 110 ft 18 kts 237°
2026-05-03 20:28 55.94367 -3.38538 112 ft 16 kts 239°
2026-05-03 20:28 55.94316 -3.38690 113 ft 7 kts 238°
2026-05-03 20:29 55.94291 -3.38765 113 ft 6 kts 238°
2026-05-03 20:29 55.94282 -3.38829 114 ft 5 kts 283°
2026-05-03 20:29 55.94308 -3.38876 114 ft 0 kts 331°
2026-05-03 20:34 55.94334 -3.38903 114 ft 7 kts 329°
2026-05-03 20:34 55.94385 -3.38955 114 ft 10 kts 340°
2026-05-03 20:35 55.94437 -3.38901 113 ft 0 kts 59°
2026-05-03 20:35 55.94439 -3.38897 113 ft 0 kts 59°
2026-05-03 20:35 55.94444 -3.38881 113 ft 6 kts 59°
2026-05-03 20:35 55.94556 -3.38553 110 ft 64 kts 59°
2026-05-03 20:36 55.94906 -3.37518 105 ft 130 kts 58°
2026-05-03 20:36 55.95457 -3.35871 296 ft 166 kts 58°
2026-05-03 20:36 55.96025 -3.34130 1046 ft 165 kts 59°
2026-05-03 20:36 55.96609 -3.32375 1669 ft 173 kts 59°
2026-05-03 20:37 55.97138 -3.30743 2185 ft 186 kts 59°
2026-05-03 20:37 55.97797 -3.28699 2819 ft 201 kts 59°
2026-05-03 20:37 55.98519 -3.26461 3463 ft 219 kts 59°
2026-05-03 20:37 55.99313 -3.24040 4184 ft 235 kts 56°
2026-05-03 20:38 56.00548 -3.22058 4864 ft 251 kts 24°
2026-05-03 20:38 56.02293 -3.21687 5536 ft 266 kts 349°
2026-05-03 20:38 56.03945 -3.23127 6445 ft 272 kts 320°
2026-05-03 20:38 56.05096 -3.25807 7370 ft 278 kts 297°
2026-05-03 20:39 56.05627 -3.29089 8263 ft 284 kts 274°
2026-05-03 20:39 56.05344 -3.32544 9195 ft 288 kts 255°
2026-05-03 20:39 56.04683 -3.35929 10108 ft 292 kts 251°
2026-05-03 20:39 56.03968 -3.39386 10777 ft 304 kts 252°
2026-05-03 20:40 56.03271 -3.43051 11330 ft 320 kts 253°
2026-05-03 20:40 56.02587 -3.46942 11892 ft 335 kts 255°
2026-05-03 20:40 56.01920 -3.50892 12694 ft 340 kts 255°
2026-05-03 20:40 56.01247 -3.54922 13517 ft 344 kts 255°
2026-05-03 20:41 56.00561 -3.59019 14328 ft 348 kts 255°
2026-05-03 20:41 55.99868 -3.63153 15120 ft 352 kts 255°
2026-05-03 20:41 55.99162 -3.67335 15889 ft 356 kts 254°
2026-05-03 20:41 55.98461 -3.71465 16622 ft 360 kts 253°
2026-05-03 20:42 55.97739 -3.75698 17522 ft 357 kts 253°
2026-05-03 20:42 55.97026 -3.79870 18421 ft 354 kts 253°
2026-05-03 20:42 55.96308 -3.84057 19270 ft 352 kts 253°
2026-05-03 20:42 55.95601 -3.88178 20082 ft 351 kts 253°
2026-05-03 20:43 55.94886 -3.92339 20883 ft 349 kts 253°
2026-05-03 20:43 55.94180 -3.96432 21619 ft 348 kts 253°
2026-05-03 20:43 55.93319 -4.00453 22011 ft 353 kts 244°
2026-05-03 20:43 55.91947 -4.04105 22102 ft 352 kts 230°
2026-05-03 20:44 55.90231 -4.07129 22119 ft 348 kts 221°
2026-05-03 20:44 55.88282 -4.09702 22072 ft 346 kts 214°
2026-05-03 20:44 55.86213 -4.11815 22060 ft 347 kts 208°
2026-05-03 20:44 55.84109 -4.13886 22056 ft 347 kts 212°
2026-05-03 20:45 55.82050 -4.16171 22044 ft 347 kts 214°
2026-05-03 20:45 55.80049 -4.18534 22011 ft 346 kts 215°
2026-05-03 20:45 55.78069 -4.20938 22004 ft 347 kts 216°
2026-05-03 20:45 55.76115 -4.23366 22001 ft 347 kts 216°
2026-05-03 20:46 55.74133 -4.25855 22004 ft 347 kts 216°
2026-05-03 20:46 55.72172 -4.28315 22013 ft 347 kts 216°
2026-05-03 20:46 55.70188 -4.30796 22015 ft 347 kts 216°
2026-05-03 20:46 55.68227 -4.33237 22016 ft 347 kts 216°
2026-05-03 20:47 55.66251 -4.35690 22015 ft 347 kts 216°
2026-05-03 20:47 55.64288 -4.38118 22013 ft 347 kts 216°
2026-05-03 20:47 55.62302 -4.40570 22012 ft 347 kts 216°
2026-05-03 20:47 55.60344 -4.42983 22013 ft 347 kts 216°
2026-05-03 20:48 55.58350 -4.45438 22014 ft 347 kts 216°
2026-05-03 20:48 55.56387 -4.47851 22016 ft 347 kts 216°
2026-05-03 20:48 55.54401 -4.50288 22017 ft 347 kts 216°
2026-05-03 20:48 55.52417 -4.52719 22018 ft 347 kts 216°
2026-05-03 20:49 55.50449 -4.55129 22019 ft 347 kts 216°
2026-05-03 20:49 55.48454 -4.57569 22019 ft 347 kts 216°
2026-05-03 20:49 55.46483 -4.59976 22018 ft 347 kts 216°
2026-05-03 20:49 55.44500 -4.62395 22018 ft 347 kts 216°
2026-05-03 20:50 55.42522 -4.64805 22017 ft 347 kts 216°
2026-05-03 20:50 55.40554 -4.67199 22016 ft 347 kts 215°
2026-05-03 20:50 55.38566 -4.69615 22016 ft 347 kts 215°
2026-05-03 20:50 55.36897 -4.71641 22016 ft 347 kts 215°
2026-05-03 20:51 55.34912 -4.74049 22016 ft 347 kts 215°
2026-05-03 20:51 55.32948 -4.76475 22019 ft 347 kts 217°
2026-05-03 20:51 55.31063 -4.79157 22020 ft 347 kts 223°
2026-05-03 20:51 55.29356 -4.82102 22021 ft 346 kts 227°
2026-05-03 20:52 55.27727 -4.85196 22021 ft 346 kts 229°
2026-05-03 20:52 55.26144 -4.88343 22018 ft 346 kts 230°
2026-05-03 20:52 55.24557 -4.91533 22017 ft 346 kts 230°
2026-05-03 20:52 55.22984 -4.94685 22017 ft 346 kts 229°
2026-05-03 20:53 55.21407 -4.97824 22017 ft 346 kts 229°
2026-05-03 20:53 55.19802 -5.00996 22014 ft 346 kts 229°
2026-05-03 20:53 55.18195 -5.04158 22012 ft 347 kts 229°
2026-05-03 20:53 55.16615 -5.07253 22012 ft 347 kts 229°
2026-05-03 20:54 55.15004 -5.10399 22011 ft 347 kts 229°
2026-05-03 20:54 55.11805 -5.16627 22016 ft 346 kts 229°
2026-05-03 20:54 55.10183 -5.19777 22017 ft 346 kts 229°
2026-05-03 20:55 55.08581 -5.22883 22017 ft 346 kts 229°
2026-05-03 20:55 55.06977 -5.25989 22017 ft 347 kts 229°
2026-05-03 20:55 55.05374 -5.29089 22016 ft 347 kts 229°
2026-05-03 20:55 55.03752 -5.32222 22016 ft 347 kts 229°
2026-05-03 20:56 55.02143 -5.35326 22016 ft 347 kts 229°
2026-05-03 20:56 55.00522 -5.38448 22016 ft 347 kts 229°
2026-05-03 20:56 54.98917 -5.41538 22015 ft 347 kts 229°
2026-05-03 20:56 54.97297 -5.44651 22016 ft 347 kts 229°
2026-05-03 20:57 54.95698 -5.47720 22015 ft 347 kts 229°
2026-05-03 20:57 54.94064 -5.50852 22016 ft 347 kts 229°
2026-05-03 20:57 54.92451 -5.53938 22016 ft 347 kts 229°
2026-05-03 20:57 54.90841 -5.57018 22017 ft 347 kts 229°
2026-05-03 20:58 54.89248 -5.60058 22018 ft 347 kts 229°
2026-05-03 20:58 54.87634 -5.63135 22021 ft 347 kts 229°
2026-05-03 20:58 54.86272 -5.65730 22021 ft 347 kts 228°
2026-05-03 20:58 54.84644 -5.68828 22021 ft 348 kts 228°
2026-05-03 20:59 54.83078 -5.71803 22020 ft 348 kts 228°
2026-05-03 20:59 54.81444 -5.74902 22017 ft 348 kts 228°
2026-05-03 20:59 54.79946 -5.77740 22014 ft 348 kts 228°
2026-05-03 20:59 54.78308 -5.80842 22014 ft 348 kts 228°
2026-05-03 21:00 54.76851 -5.83598 22014 ft 348 kts 228°
2026-05-03 21:00 54.76305 -5.84630 22014 ft 348 kts 228°
2026-05-03 21:00 54.73589 -5.89754 22014 ft 348 kts 228°
2026-05-03 21:00 54.71942 -5.92858 22013 ft 348 kts 228°
2026-05-03 21:01 54.70320 -5.95908 22014 ft 348 kts 228°
2026-05-03 21:01 54.68676 -5.98994 22012 ft 348 kts 228°
2026-05-03 21:01 54.67047 -6.02050 22012 ft 348 kts 228°
2026-05-03 21:01 54.65397 -6.05140 22012 ft 349 kts 228°
2026-05-03 21:02 54.63752 -6.08218 22013 ft 349 kts 228°
2026-05-03 21:02 54.62112 -6.11282 22019 ft 349 kts 228°
2026-05-03 21:02 54.60468 -6.14351 22023 ft 349 kts 228°
2026-05-03 21:02 54.58820 -6.17422 22024 ft 349 kts 228°
2026-05-03 21:03 54.57172 -6.20490 22026 ft 349 kts 228°
2026-05-03 21:03 54.55534 -6.23537 22023 ft 349 kts 228°
2026-05-03 21:03 54.53883 -6.26602 22021 ft 349 kts 228°
2026-05-03 21:03 54.52237 -6.29656 22020 ft 349 kts 228°
2026-05-03 21:04 54.50586 -6.32713 22020 ft 350 kts 227°
2026-05-03 21:04 54.48925 -6.35785 22021 ft 350 kts 227°
2026-05-03 21:04 54.47282 -6.38820 22021 ft 350 kts 227°
2026-05-03 21:04 54.45616 -6.41897 22022 ft 350 kts 227°
2026-05-03 21:05 54.43964 -6.44942 22021 ft 350 kts 227°
2026-05-03 21:05 54.42314 -6.47976 22020 ft 350 kts 227°
2026-05-03 21:05 54.40663 -6.51010 22019 ft 350 kts 227°
2026-05-03 21:05 54.39013 -6.54039 22020 ft 350 kts 227°
2026-05-03 21:06 54.37340 -6.57106 22019 ft 350 kts 227°
2026-05-03 21:06 54.35677 -6.60153 22020 ft 350 kts 227°
2026-05-03 21:06 54.34032 -6.63161 22019 ft 350 kts 228°
2026-05-03 21:06 54.32417 -6.66111 22019 ft 350 kts 227°
2026-05-03 21:07 54.30812 -6.69037 22019 ft 350 kts 227°
2026-05-03 21:07 54.29153 -6.72061 22019 ft 351 kts 227°
2026-05-03 21:07 54.27484 -6.75097 22019 ft 351 kts 227°
2026-05-03 21:07 54.25817 -6.78127 22019 ft 351 kts 227°
2026-05-03 21:08 54.24133 -6.81183 22020 ft 350 kts 227°
2026-05-03 21:08 54.22471 -6.84196 22017 ft 350 kts 227°
2026-05-03 21:08 54.20814 -6.87195 22015 ft 351 kts 227°
2026-05-03 21:08 54.19102 -6.90210 22013 ft 353 kts 225°
2026-05-03 21:09 54.17268 -6.93002 22012 ft 354 kts 220°
2026-05-03 21:09 54.15350 -6.95591 22014 ft 356 kts 218°
2026-05-03 21:09 54.13359 -6.98156 22016 ft 355 kts 218°
2026-05-03 21:09 54.11397 -7.00660 22015 ft 355 kts 218°
2026-05-03 21:10 54.09415 -7.03198 22014 ft 355 kts 218°
2026-05-03 21:10 54.07464 -7.05709 22012 ft 355 kts 218°
2026-05-03 21:10 54.05484 -7.08273 22010 ft 355 kts 218°
2026-05-03 21:10 54.03535 -7.10804 22008 ft 355 kts 218°
2026-05-03 21:11 54.01573 -7.13352 22006 ft 355 kts 218°
2026-05-03 21:11 53.99627 -7.15881 22002 ft 355 kts 218°
2026-05-03 21:11 53.97655 -7.18442 22001 ft 355 kts 218°
2026-05-03 21:11 53.95707 -7.20972 22001 ft 356 kts 218°
2026-05-03 21:12 53.93724 -7.23543 22002 ft 356 kts 218°
2026-05-03 21:12 53.91770 -7.26074 22011 ft 356 kts 218°
2026-05-03 21:12 53.89798 -7.28626 22017 ft 356 kts 218°
2026-05-03 21:12 53.87907 -7.31071 22017 ft 356 kts 218°
2026-05-03 21:13 53.86066 -7.33447 22017 ft 356 kts 218°
2026-05-03 21:13 53.84075 -7.36017 22008 ft 356 kts 218°
2026-05-03 21:13 53.82118 -7.38538 22004 ft 356 kts 218°
2026-05-03 21:13 53.80133 -7.41090 22004 ft 356 kts 218°
2026-05-03 21:14 53.78171 -7.43611 22006 ft 356 kts 218°
2026-05-03 21:14 53.76191 -7.46152 22009 ft 356 kts 218°
2026-05-03 21:14 53.74242 -7.48649 22010 ft 357 kts 218°
2026-05-03 21:14 53.72266 -7.51178 22010 ft 357 kts 218°
2026-05-03 21:15 53.70274 -7.53725 22010 ft 357 kts 218°
2026-05-03 21:15 53.68292 -7.56258 22010 ft 357 kts 218°
2026-05-03 21:15 53.66353 -7.58772 22010 ft 357 kts 221°
2026-05-03 21:15 53.64533 -7.61613 22010 ft 357 kts 227°
2026-05-03 21:16 53.62830 -7.64698 22010 ft 356 kts 230°
2026-05-03 21:16 53.61201 -7.67790 22010 ft 356 kts 229°
2026-05-03 21:16 53.59551 -7.70910 22009 ft 356 kts 229°
2026-05-03 21:16 53.57883 -7.74017 22008 ft 356 kts 228°
2026-05-03 21:17 53.56226 -7.77058 22006 ft 356 kts 228°
2026-05-03 21:17 53.55107 -7.79090 22002 ft 356 kts 228°
2026-05-03 21:17 53.52857 -7.83139 21991 ft 356 kts 227°
2026-05-03 21:17 53.51150 -7.86187 21987 ft 356 kts 227°
2026-05-03 21:18 53.49474 -7.89168 21982 ft 356 kts 227°
2026-05-03 21:18 53.47766 -7.92200 21991 ft 356 kts 227°
2026-05-03 21:18 53.46082 -7.95182 21996 ft 356 kts 227°
2026-05-03 21:18 53.44374 -7.98201 21998 ft 356 kts 227°
2026-05-03 21:19 53.42664 -8.01222 21998 ft 356 kts 227°
2026-05-03 21:19 53.40962 -8.04224 21990 ft 356 kts 227°
2026-05-03 21:19 53.39270 -8.07206 21983 ft 357 kts 227°
2026-05-03 21:19 53.37566 -8.10205 21981 ft 357 kts 227°
2026-05-03 21:20 53.35849 -8.13220 21978 ft 358 kts 227°
2026-05-03 21:20 53.34143 -8.16212 21940 ft 351 kts 227°
2026-05-03 21:20 53.32484 -8.19117 21758 ft 342 kts 227°
2026-05-03 21:20 53.30828 -8.22017 21439 ft 348 kts 227°
2026-05-03 21:21 53.29162 -8.24932 21021 ft 351 kts 227°
2026-05-03 21:21 53.27476 -8.27877 20577 ft 349 kts 227°
2026-05-03 21:21 53.25823 -8.30760 20156 ft 347 kts 227°
2026-05-03 21:21 53.24162 -8.33655 19742 ft 344 kts 227°
2026-05-03 21:22 53.22508 -8.36533 19331 ft 341 kts 227°
2026-05-03 21:22 53.20884 -8.39356 18922 ft 338 kts 227°
2026-05-03 21:22 53.19267 -8.42162 18614 ft 331 kts 227°
2026-05-03 21:22 53.17693 -8.44892 18277 ft 326 kts 227°
2026-05-03 21:23 53.16146 -8.47574 17899 ft 323 kts 227°
2026-05-03 21:23 53.14590 -8.50267 17514 ft 320 kts 227°
2026-05-03 21:23 53.13047 -8.52936 17131 ft 318 kts 227°
2026-05-03 21:23 53.11520 -8.55571 16753 ft 321 kts 227°
2026-05-03 21:24 53.09979 -8.58230 16363 ft 323 kts 227°
2026-05-03 21:24 53.08422 -8.60913 15970 ft 320 kts 227°
2026-05-03 21:24 53.06890 -8.63549 15584 ft 318 kts 227°
2026-05-03 21:24 53.05365 -8.66170 15202 ft 315 kts 226°
2026-05-03 21:25 53.03841 -8.68786 14820 ft 313 kts 226°
2026-05-03 21:25 53.02342 -8.71358 14449 ft 310 kts 226°
2026-05-03 21:25 53.00852 -8.73910 14075 ft 309 kts 226°
2026-05-03 21:25 52.99369 -8.76450 13699 ft 307 kts 226°
2026-05-03 21:26 52.97877 -8.79003 13322 ft 305 kts 226°
2026-05-03 21:26 52.96408 -8.81515 12940 ft 304 kts 226°
2026-05-03 21:26 52.94947 -8.84010 12570 ft 301 kts 226°
2026-05-03 21:26 52.93499 -8.86478 12203 ft 298 kts 226°
2026-05-03 21:27 52.92057 -8.88936 11838 ft 295 kts 226°
2026-05-03 21:27 52.90652 -8.91327 11485 ft 292 kts 226°
2026-05-03 21:27 52.89245 -8.93720 11134 ft 297 kts 226°
2026-05-03 21:27 52.87778 -8.96212 10760 ft 296 kts 226°
2026-05-03 21:28 52.86342 -8.98650 10398 ft 292 kts 226°
2026-05-03 21:28 52.84946 -9.01016 10033 ft 289 kts 226°
2026-05-03 21:28 52.83551 -9.03380 9804 ft 280 kts 226°
2026-05-03 21:28 52.82203 -9.05661 9491 ft 282 kts 226°
2026-05-03 21:29 52.80814 -9.08006 9136 ft 285 kts 226°
2026-05-03 21:29 52.79444 -9.10324 8808 ft 282 kts 226°
2026-05-03 21:29 52.78074 -9.12637 8473 ft 280 kts 226°
2026-05-03 21:29 52.76722 -9.14916 8139 ft 278 kts 226°
2026-05-03 21:30 52.75380 -9.17176 7723 ft 280 kts 226°
2026-05-03 21:30 52.74008 -9.19481 7352 ft 279 kts 226°
2026-05-03 21:30 52.72662 -9.21739 7005 ft 277 kts 226°
2026-05-03 21:30 52.71309 -9.24013 6651 ft 276 kts 226°
2026-05-03 21:31 52.69982 -9.26236 6310 ft 274 kts 226°
2026-05-03 21:31 52.68644 -9.28476 5968 ft 273 kts 226°
2026-05-03 21:31 52.67271 -9.30605 5626 ft 272 kts 219°
2026-05-03 21:31 52.65649 -9.32085 5271 ft 269 kts 193°
2026-05-03 21:32 52.63825 -9.32013 5025 ft 264 kts 160°
2026-05-03 21:32 52.62245 -9.30520 4787 ft 258 kts 139°
2026-05-03 21:32 52.60883 -9.28697 4510 ft 252 kts 138°
2026-05-03 21:32 52.59534 -9.26920 4224 ft 247 kts 139°
2026-05-03 21:33 52.58297 -9.25037 3980 ft 234 kts 122°
2026-05-03 21:33 52.57803 -9.22669 3768 ft 216 kts 89°
2026-05-03 21:33 52.58005 -9.20285 3559 ft 204 kts 72°
2026-05-03 21:33 52.58452 -9.18141 3355 ft 196 kts 64°
2026-05-03 21:34 52.59101 -9.16206 3168 ft 194 kts 55°
2026-05-03 21:34 52.59878 -9.14381 3004 ft 192 kts 52°
2026-05-03 21:34 52.60647 -9.12688 2965 ft 180 kts 51°
2026-05-03 21:34 52.61420 -9.11029 2681 ft 183 kts 51°
2026-05-03 21:35 52.62193 -9.09387 2421 ft 179 kts 51°
2026-05-03 21:35 52.62927 -9.07832 2171 ft 166 kts 51°
2026-05-03 21:35 52.63614 -9.06376 1950 ft 161 kts 51°
2026-05-03 21:35 52.64296 -9.04939 1724 ft 158 kts 51°
2026-05-03 21:36 52.64961 -9.03534 1503 ft 156 kts 51°
2026-05-03 21:36 52.65539 -9.02307 1319 ft 142 kts 51°
2026-05-03 21:36 52.66125 -9.01070 1112 ft 134 kts 51°
2026-05-03 21:36 52.66708 -8.99842 937 ft 136 kts 51°
2026-05-03 21:37 52.67285 -8.98624 752 ft 137 kts 51°
2026-05-03 21:37 52.67880 -8.97364 566 ft 137 kts 51°
2026-05-03 21:37 52.68467 -8.96132 391 ft 137 kts 51°
2026-05-03 21:37 52.69055 -8.94901 183 ft 136 kts 51°
2026-05-03 21:38 52.69630 -8.93678 45 ft 134 kts 51°
2026-05-03 21:38 52.70179 -8.92520 19 ft 145 kts 52°
2026-05-03 21:38 52.70800 -8.91195 73 ft 130 kts 51°
2026-05-03 21:38 52.71113 -8.90583 251 ft 133 kts 42°